M3YFM-13 Weather Reports


Display with metric or nautical units.
time (UTC)temp
F
wind
direction
speed
MPH
gust
MPH
rain 1hr
in
rain 24hr
in
rain mn
in
humidity
%
barometer
mb
20260505233906 52 124 3.0 8.0 0.00 0.00 0.00 70
20260505233406 52 108 4.0 10.0 0.00 0.00 0.00 70
20260505232906 53 83 3.0 10.0 0.00 0.00 0.00 70
20260505232405 52 134 5.0 11.0 0.00 0.00 0.00 69
20260505231905 52 188 4.0 9.0 0.00 0.00 0.00 69
20260505231405 53 91 3.0 9.0 0.00 0.00 0.00 69
20260505230904 52 127 3.0 8.0 0.00 0.00 0.00 68
20260505230404 52 146 4.0 9.0 0.00 0.00 0.00 68
20260505225904 53 142 4.0 11.0 0.00 0.00 0.00 68
20260505225403 53 148 2.0 7.0 0.00 0.00 0.00 68
20260505224903 53 153 2.0 7.0 0.00 0.00 0.00 67
20260505224403 53 35 1.0 6.0 0.00 0.00 0.00 67
20260505223902 53 129 2.0 6.0 0.00 0.00 0.00 66
20260505223402 53 68 4.0 9.0 0.00 0.00 0.00 66
20260505222902 53 145 4.0 9.0 0.00 0.00 0.00 66
20260505222402 53 146 3.0 9.0 0.00 0.00 0.00 66
20260505221901 54 97 4.0 9.0 0.00 0.00 0.00 65
20260505221401 52 86 3.0 8.0 0.00 0.00 0.00 64
20260505220901 53 89 5.0 10.0 0.00 0.00 0.00 64
20260505220401 53 135 2.0 5.0 0.00 0.00 0.00 64
20260505215900 54 44 1.0 5.0 0.00 0.00 0.00 63
20260505215359 54 52 2.0 5.0 0.00 0.00 0.00 63
20260505214859 54 41 1.0 4.0 0.00 0.00 0.00 63
20260505214359 54 103 0.0 2.0 0.00 0.00 0.00 62
20260505213859 54 52 1.0 3.0 0.00 0.00 0.00 62
20260505213358 54 89 1.0 4.0 0.00 0.00 0.00 62
20260505212858 54 56 1.0 5.0 0.00 0.00 0.00 61
20260505212358 54 46 1.0 6.0 0.00 0.00 0.00 61
20260505211857 54 7 1.0 4.0 0.00 0.00 0.00 60
20260505211357 54 55 1.0 5.0 0.00 0.00 0.00 60
20260505210857 55 46 1.0 4.0 0.00 0.00 0.00 59
20260505210357 54 15 1.0 4.0 0.00 0.00 0.00 59
20260505205856 54 124 1.0 5.0 0.00 0.00 0.00 58
20260505205356 55 38 2.0 7.0 0.00 0.00 0.00 58
20260505204856 55 28 1.0 6.0 0.00 0.00 0.00 58
20260505204356 55 76 1.0 4.0 0.00 0.00 0.00 58
20260505203855 55 55 2.0 6.0 0.00 0.00 0.00 57
20260505203355 55 75 1.0 4.0 0.00 0.00 0.00 57
20260505202855 55 23 1.0 5.0 0.00 0.00 0.00 57
20260505201854 56 63 1.0 5.0 0.00 0.00 0.00 57
20260505201354 56 62 3.0 6.0 0.00 0.00 0.00 56
20260505200854 56 49 2.0 6.0 0.00 0.00 0.00 56
20260505200353 56 82 2.0 6.0 0.00 0.00 0.00 56
20260505195853 56 84 1.0 4.0 0.00 0.00 0.00 55
20260505195353 56 75 1.0 5.0 0.00 0.00 0.00 54
20260505194852 57 65 1.0 6.0 0.00 0.00 0.00 54
20260505194352 56 68 1.0 3.0 0.00 0.00 0.00 54
20260505193852 56 49 1.0 7.0 0.00 0.00 0.00 53
20260505193352 56 59 1.0 4.0 0.00 0.00 0.00 54
20260505192851 57 52 1.0 5.0 0.00 0.00 0.00 54
20260505192351 56 59 2.0 5.0 0.00 0.00 0.00 54
20260505191851 57 30 2.0 5.0 0.00 0.00 0.00 53
20260505191350 57 30 2.0 5.0 0.00 0.00 0.00 52
20260505190850 57 75 2.0 6.0 0.00 0.00 0.00 51
20260505190350 57 94 3.0 8.0 0.00 0.00 0.00 50
20260505185849 57 103 2.0 7.0 0.00 0.00 0.00 50
20260505185349 58 142 2.0 6.0 0.00 0.00 0.00 50
20260505184849 58 93 4.0 9.0 0.00 0.00 0.00 50
20260505184349 58 73 4.0 10.0 0.00 0.00 0.00 50
20260505183348 58 117 3.0 7.0 0.00 0.00 0.00 50
20260505182848 58 60 4.0 10.0 0.00 0.00 0.00 49
20260505181847 58 113 2.0 7.0 0.00 0.00 0.00 48
20260505181347 59 118 2.0 6.0 0.00 0.00 0.00 48
20260505180847 59 108 2.0 6.0 0.00 0.00 0.00 48
20260505180346 59 8 2.0 6.0 0.00 0.00 0.00 48
20260505175846 59 62 2.0 5.0 0.00 0.00 0.00 48
20260505175346 59 90 2.0 6.0 0.00 0.00 0.00 49
20260505174846 59 84 3.0 6.0 0.00 0.00 0.00 49
20260505174345 59 107 3.0 8.0 0.00 0.00 0.00 48
20260505173845 59 21 2.0 6.0 0.00 0.00 0.00 47
20260505173345 59 18 2.0 7.0 0.00 0.00 0.00 47
20260505172844 59 21 2.0 6.0 0.00 0.00 0.00 46
20260505172344 60 70 2.0 6.0 0.00 0.00 0.00 46
20260505171844 59 80 2.0 7.0 0.00 0.00 0.00 46
20260505171344 59 23 4.0 8.0 0.00 0.00 0.00 46
20260505170843 59 34 3.0 7.0 0.00 0.00 0.00 45
20260505170343 59 30 3.0 8.0 0.00 0.00 0.00 46
20260505165843 59 357 3.0 10.0 0.00 0.00 0.00 46
20260505165342 59 89 2.0 7.0 0.00 0.00 0.00 46
20260505164842 59 48 4.0 9.0 0.00 0.00 0.00 46
20260505163842 59 69 3.0 8.0 0.00 0.00 0.00 46
20260505163341 59 100 2.0 6.0 0.00 0.00 0.00 46
20260505162841 59 23 3.0 6.0 0.00 0.00 0.00 46
20260505162340 60 38 3.0 9.0 0.00 0.00 0.00 46
20260505161340 59 89 3.0 8.0 0.00 0.00 0.00 47
20260505160839 59 52 4.0 10.0 0.00 0.00 0.00 46
20260505160339 59 68 3.0 9.0 0.00 0.00 0.00 46
20260505153337 60 76 2.0 8.0 0.00 0.00 0.00 46
20260505152837 60 41 2.0 6.0 0.00 0.00 0.00 46
20260505152337 60 72 3.0 8.0 0.00 0.00 0.00 46
20260505151836 60 96 3.0 7.0 0.00 0.00 0.00 46
20260505151336 60 103 2.0 7.0 0.00 0.00 0.00 47
20260505150836 60 83 3.0 9.0 0.00 0.00 0.00 46
20260505150335 62 110 2.0 6.0 0.00 0.00 0.00 45
20260505140332 62 93 3.0 8.0 0.00 0.00 0.00 45
20260505124828 63 58 2.0 5.0 0.00 0.00 0.00 45
20260505123827 63 90 3.0 7.0 0.00 0.00 0.00 44
20260505123327 63 158 2.0 8.0 0.00 0.00 0.00 44
20260505122827 64 21 4.0 10.0 0.00 0.00 0.00 42
20260505122326 63 69 2.0 6.0 0.00 0.00 0.00 44
20260505121826 63 108 3.0 8.0 0.00 0.00 0.00 42
20260505121326 63 31 3.0 9.0 0.00 0.00 0.00 43
20260505120825 63 63 3.0 9.0 0.00 0.00 0.00 44
20260505120325 63 34 3.0 9.0 0.00 0.00 0.00 44
20260505115825 61 25 3.0 6.0 0.00 0.00 0.00 46
20260505115325 61 70 3.0 9.0 0.00 0.00 0.00 46
20260505114824 62 44 2.0 6.0 0.00 0.00 0.00 47
20260505114324 61 94 3.0 7.0 0.00 0.00 0.00 48
20260505113824 61 80 1.0 7.0 0.00 0.00 0.00 48
20260505113323 61 83 3.0 8.0 0.00 0.00 0.00 48
20260505112823 61 13 3.0 7.0 0.00 0.00 0.00 48
20260505112323 60 90 4.0 12.0 0.00 0.00 0.00 50
20260505111823 60 118 4.0 10.0 0.00 0.00 0.00 49
20260505111322 60 46 3.0 8.0 0.00 0.00 0.00 48
20260505110822 59 353 2.0 6.0 0.00 0.00 0.00 50
20260505110322 58 69 3.0 8.0 0.00 0.00 0.00 49
20260505101818 58 114 3.0 9.0 0.00 0.00 0.00 50
20260505100817 60 7 5.0 10.0 0.00 0.00 0.00 51
20260505095817 59 41 4.0 9.0 0.00 0.00 0.00 51
20260505094816 59 80 3.0 8.0 0.00 0.00 0.00 53
20260505093815 58 66 3.0 9.0 0.00 0.00 0.00 53
20260505093315 58 87 4.0 11.0 0.00 0.00 0.00 51
20260505092815 58 42 3.0 8.0 0.00 0.00 0.00 53
20260505092315 58 86 4.0 11.0 0.00 0.00 0.00 53
20260505091814 58 87 6.0 11.0 0.00 0.00 0.00 49
20260505091314 60 11 3.0 7.0 0.00 0.00 0.00 52
20260505090313 59 18 4.0 8.0 0.00 0.00 0.00 53
20260505085813 58 49 3.0 7.0 0.00 0.00 0.00 55
20260505085313 57 34 3.0 10.0 0.00 0.00 0.00 54
20260505084813 56 32 3.0 9.0 0.00 0.00 0.00 56
20260505084312 56 94 3.0 9.0 0.00 0.00 0.00 59
20260505083812 56 59 3.0 9.0 0.00 0.00 0.00 60
20260505083312 56 28 3.0 10.0 0.00 0.00 0.00 61
20260505082811 55 60 4.0 10.0 0.00 0.00 0.00 63
20260505082311 55 6 4.0 11.0 0.00 0.00 0.00 63
20260505081811 55 60 2.0 8.0 0.00 0.00 0.00 66
20260505081311 54 82 3.0 8.0 0.00 0.00 0.00 66
20260505080810 54 83 3.0 10.0 0.00 0.00 0.00 67
20260505080310 53 108 2.0 5.0 0.00 0.00 0.00 68
20260505075309 53 52 2.0 6.0 0.00 0.00 0.00 72
20260505074809 53 93 2.0 6.0 0.00 0.00 0.00 73
20260505074309 52 42 2.0 6.0 0.00 0.00 0.00 75
20260505073809 51 42 3.0 8.0 0.00 0.00 0.00 76
20260505073308 52 42 2.0 8.0 0.00 0.00 0.00 77
20260505072808 51 38 1.0 4.0 0.00 0.00 0.00 79
20260505072308 50 44 1.0 5.0 0.00 0.00 0.00 79
20260505071808 50 41 0.0 1.0 0.00 0.00 0.00 80
20260505071307 50 31 0.0 4.0 0.00 0.00 0.00 81
20260505070807 49 68 1.0 5.0 0.00 0.00 0.00 81
20260505070307 50 107 0.0 3.0 0.00 0.00 0.00 82
20260505065806 49 77 1.0 4.0 0.00 0.00 0.00 83
20260505065306 49 24 0.0 3.0 0.00 0.00 0.00 84
20260505064806 49 103 1.0 6.0 0.00 0.00 0.00 85
20260505064306 48 77 1.0 4.0 0.00 0.00 0.00 86
20260505063805 48 76 1.0 4.0 0.00 0.00 0.00 87
20260505063305 49 98 1.0 4.0 0.00 0.00 0.00 88
20260505062805 48 98 1.0 5.0 0.00 0.00 0.00 90
20260505062304 48 141 1.0 5.0 0.00 0.00 0.00 91
20260505061804 48 122 0.0 3.0 0.00 0.00 0.00 92
20260505061304 48 0 0.0 0.0 0.00 0.00 0.00 92
20260505060804 46 0 0.0 0.0 0.00 0.00 0.00 92
20260505060303 46 7 0.0 1.0 0.00 0.00 0.00 92
20260505055803 46 0 0.0 0.0 0.00 0.00 0.00 92
20260505055303 45 0 0.0 0.0 0.00 0.00 0.00 92
20260505054801 45 0 0.0 0.0 0.00 0.00 0.00 91
20260505054301 45 21 0.0 3.0 0.00 0.00 0.00 92
20260505053801 45 32 0.0 1.0 0.00 0.00 0.00 92
20260505053300 45 0 0.0 0.0 0.00 0.00 0.00 91
20260505052800 44 0 0.0 0.0 0.00 0.00 0.00 92
20260505052300 45 0 0.0 0.0 0.00 0.00 0.00 92
20260505051800 45 0 0.0 0.0 0.00 0.00 0.00 91
20260505051259 45 0 0.0 0.0 0.00 0.00 0.00 91
20260505050758 45 0 0.0 0.0 0.00 0.00 0.00 91
20260505050258 45 0 0.0 0.0 0.00 0.00 0.00 91
20260505041756 45 0 0.0 0.0 0.00 0.00 0.00 91
20260505041255 45 0 0.0 0.0 0.00 0.00 0.00 91
20260505040750 45 0 0.0 0.0 0.00 0.00 0.00 91
20260505040250 45 0 0.0 0.0 0.00 0.00 0.00 90
20260505035750 45 0 0.0 0.0 0.00 0.00 0.00 90
20260505035249 45 0 0.0 0.0 0.00 0.00 0.00 90
20260505034749 46 0 0.0 0.0 0.00 0.00 0.00 90
20260505034249 46 0 0.0 0.0 0.00 0.00 0.00 90
20260505033748 46 0 0.0 0.0 0.00 0.00 0.00 90
20260505033247 46 0 0.0 0.0 0.00 0.00 0.00 90
20260505032747 46 0 0.0 0.0 0.00 0.00 0.00 90
20260505031746 45 18 0.0 1.0 0.00 0.00 0.00 90
20260505031246 46 0 0.0 0.0 0.00 0.00 0.00 90
20260505030745 46 38 0.0 2.0 0.00 0.00 0.00 90
20260505030245 46 10 0.0 1.0 0.00 0.00 0.00 90
20260505025745 46 87 0.0 1.0 0.00 0.00 0.00 89
20260505025245 46 0 0.0 0.0 0.00 0.00 0.00 89
20260505024744 46 0 0.0 0.0 0.00 0.00 0.00 89
20260505024244 46 0 0.0 0.0 0.00 0.00 0.00 89
20260505023744 46 0 0.0 0.0 0.00 0.00 0.00 89
20260505023243 46 0 0.0 0.0 0.00 0.00 0.00 89
20260505022742 47 0 0.0 0.0 0.00 0.00 0.00 89
20260505022242 46 0 0.0 0.0 0.00 0.00 0.00 89
20260505021742 47 0 0.0 0.0 0.00 0.00 0.00 89
20260505021241 47 0 0.0 0.0 0.00 0.00 0.00 88
20260505020741 46 0 0.0 0.0 0.00 0.00 0.00 88
20260505020241 47 0 0.0 0.0 0.00 0.00 0.00 88
20260505015741 48 0 0.0 0.0 0.00 0.00 0.00 88
20260505015240 48 0 0.0 0.0 0.00 0.00 0.00 88
20260505014740 48 0 0.0 0.0 0.00 0.00 0.00 88
20260505014240 48 0 0.0 0.0 0.00 0.00 0.00 88
20260505013739 48 0 0.0 0.0 0.00 0.00 0.00 88
20260505013239 48 0 0.0 0.0 0.00 0.00 0.00 87
20260505012739 48 0 0.0 0.0 0.00 0.00 0.00 87
20260505012239 49 0 0.0 0.0 0.00 0.00 0.00 87
20260505011738 49 0 0.0 0.0 0.00 0.00 0.00 87
20260505011238 48 0 0.0 0.0 0.00 0.00 0.00 87
20260505010738 48 0 0.0 0.0 0.00 0.00 0.00 87
20260505010237 49 0 0.0 0.0 0.00 0.00 0.00 87
20260505005737 49 0 0.0 0.0 0.00 0.00 0.00 87
20260505005237 49 0 0.0 0.0 0.00 0.00 0.00 87
20260505004737 50 0 0.0 0.0 0.00 0.00 0.00 87
20260505004236 49 0 0.0 0.0 0.00 0.00 0.00 87
20260505003736 49 0 0.0 0.0 0.00 0.00 0.00 86
20260505003236 49 0 0.0 0.0 0.00 0.00 0.00 86
20260505002735 49 0 0.0 0.0 0.00 0.00 0.00 86
20260505002235 50 0 0.0 0.0 0.00 0.00 0.00 86
20260505001735 49 0 0.0 0.0 0.00 0.00 0.00 85
20260505001235 50 0 0.0 0.0 0.00 0.00 0.00 85
20260505000734 50 0 0.0 0.0 0.00 0.00 0.00 85
20260505000234 52 0 0.0 0.0 0.00 0.00 0.00 85
20260504235734 51 0 0.0 0.0 0.00 0.00 0.00 85
20260504235233 51 0 0.0 0.0 0.00 0.00 0.00 85
20260504234733 51 0 0.0 0.0 0.00 0.00 0.00 84
20260504234233 51 0 0.0 0.0 0.00 0.00 0.00 84